Regional Weather Roundup
Issued by NWS

Home | Current Version | Previous Version | Graphics & Text | Print | Product List | Glossary On
Versions: 1 2 3 4 5 6 7 8 9 10 11 12 13 14 15 16 17 18 19 20 21 22 23 24 25 26 27 28 29 30 31 32 33 34 35 36 37 38 39 40 41 42 43 44 45 46 47 48 49 50
000
ASUS43 KBIS 200720
RWRND

NORTH DAKOTA REGIONAL WEATHER ROUNDUP
NATIONAL WEATHER SERVICE BISMARCK ND
100 AM CST SAT DEC 20 2014

NOTE: "FAIR" INDICATES FEW OR NO CLOUDS BELOW 12,000 FEET WITH NO
SIGNIFICANT WEATHER AND/OR OBSTRUCTIONS TO VISIBILITY.


NDZ001>003-009>011-017-200800-
NORTHWEST NORTH DAKOTA

CITY           SKY/WX    TMP DP  RH WIND       PRES   REMARKS
WILLISTON      FOG       13  12  96 CALM      29.89F VSB 1/4
MINOT          FOG       22  19  89 SW5       29.93S VSB 1/4 WCI  16
MINOT AFB      FOG       23  23 100 CALM      29.93S VSB 1/2
$$

NDZ018>021-031>035-040>046-200800-
SOUTHWEST NORTH DAKOTA

CITY           SKY/WX    TMP DP  RH WIND       PRES   REMARKS
BISMARCK       FOG       15  14  95 NE5       29.96S VSB 3/4 WCI   8
DICKINSON      CLEAR     22  17  81 S3        29.87S
GARRISON         N/A     25  23  92 SE6       29.91F WCI  18
HETTINGER ARPT CLEAR     18  13  80 W3        29.90F
$$

NDZ004>008-012>016-024-026-027-054-200800-
NORTHEAST NORTH DAKOTA

CITY           SKY/WX    TMP DP  RH WIND       PRES   REMARKS
GRAND FORKS    CLOUDY    30  28  92 S5        29.99F
GRND FRKS AFB  CLOUDY    29  29 100 W2        29.99F
DEVILS LAKE    CLOUDY    23  18  80 CALM      29.95S
$$

NDZ022-023-025-028>030-036>039-047>053-200800-
SOUTHEAST NORTH DAKOTA

CITY           SKY/WX    TMP DP  RH WIND       PRES   REMARKS
FARGO          CLOUDY    31  28  89 S7        30.01S
JAMESTOWN      CLOUDY    22  20  92 S3        29.96S FOG
$$



USA.gov is the U.S. government's official web portal to all federal, state and local government web resources and services.